Location: Old Broadwell Mill Observatory
(33.8015°N, 85.8137°W)
Time: 10:22:36
(UTC-05:00)

Daily predictions for brighter satellites

Satellite Brightness Start Highest point End
(mag) Time Altitude Azimuth Time Altitude Azimuth Time Altitude Azimuth
BREEZE-M DEB (TANK) 4.2 20:08:25 10° N 20:10:01 16° NE 20:12:10 10° E
Cosmos 1674 Rocket 3.7 20:05:40 10° S 20:10:07 88° W 20:14:36 10° N
Delta 7925 Rocket 4.1 20:06:36 10° WSW 20:11:06 34° S 20:15:17 10° ESE
Cosmos 1184 Rocket 4.3 20:08:25 10° SSW 20:11:37 43° W 20:14:50 10° N
NOSS 3-2 (A) 3.7 20:06:11 10° SW 20:11:55 73° WNW 20:18:16 10° NNE
Atlas Centaur 2 1.7 20:08:02 10° W 20:12:12 46° S 20:15:46 10° ESE
Tsikada Rocket 4.5 20:06:15 10° N 20:12:23 45° E 20:18:27 10° SSE
Cosmos 1975 Rocket 4.2 20:09:07 10° SE 20:12:33 23° E 20:15:59 10° NE
ERS-2 3.1 20:10:43 10° SE 20:14:00 31° ENE 20:17:18 10° N
SJ-6B 2.7 20:11:42 10° S 20:15:25 85° W 20:19:09 10° NNW
Cosmos 1980 Rocket 2.2 20:10:35 10° NNW 20:16:17 84° ENE 20:21:58 10° SSE
USA 186 2.1 20:13:23 10° SSE 20:16:29 51° ENE 20:19:46 10° N
USA 234 3.4 20:10:39 10° NE 20:17:01 51° SE 20:23:21 10° SSW
IUS-9 SRM-1 3.8 20:14:51 10° WSW 20:18:00 40° SSE 20:29:06 10° ESE
Okean 1 Rocket 3.4 20:14:25 10° N 20:18:35 44° E 20:22:42 10° SSE
NOSS 3-2 (C) 3.4 20:12:50 10° SSW 20:18:38 88° ESE 20:24:58 10° NNE
ISS -0.5 20:18:25 10° WNW 20:19:57 13° NNW 20:21:29 10° N
Cosmos 1570 Rocket 4.1 20:14:49 10° SSW 20:20:09 88° WNW 20:25:32 10° NNE
Cosmos 1975 3.8 20:16:38 10° NNE 20:20:11 30° E 20:23:42 10° SE
Cosmos 1666 4.0 20:17:16 10° NNE 20:20:28 24° ENE 20:23:38 10° SE
Cosmos 2084 3.4 20:17:03 10° SSW 20:21:28 81° ESE 20:25:40 10° NNE
Tiangong 2 3.6 20:19:14 10° WNW 20:21:46 21° NNW 20:24:17 10° NE
GPS 2-04 Rocket1 3.6 20:23:40 10° W 20:27:35 41° SSW 20:31:18 12° SE
ATLAS CENTAUR R/B 3.6 20:22:48 10° SW 20:27:46 85° SE 20:42:46 10° NE
CENTAUR R/B 2.6 20:29:26 10° S 20:34:54 48° ESE 20:41:04 10° NE
Cosmos 1743 3.5 20:32:20 10° NNE 20:35:50 34° E 20:38:42 14° SE
ATLAS CENTAUR R/B 2.7 20:33:21 10° NW 20:37:47 44° WSW 20:42:21 10° S
Cosmos 2233 Rocket 3.9 20:36:06 10° S 20:42:12 72° E 20:48:22 10° N
Cosmos 1814 Rocket 4.1 20:37:12 10° S 20:42:18 56° ESE 20:47:28 10° NNE
Cosmos 1898 Rocket 3.9 20:37:45 10° N 20:42:54 50° ENE 20:47:10 15° SE
Okean 1 4.3 20:44:23 10° SSW 20:48:19 51° W 20:52:17 10° N
Resurs 01 Rocket 1.6 20:45:16 10° SSE 20:49:40 90° NE 20:54:05 10° NNW
H-2A R/B 3.4 20:48:26 15° ESE 20:50:58 22° ENE 20:54:44 10° NNE
Meteor 2-4 Rocket 4.0 20:46:51 10° SSE 20:51:57 44° E 20:57:11 10° NNE
Cosmos 990 Rocket 4.4 20:50:32 10° N 20:55:33 46° ENE 20:58:52 20° SE
ARGOS 3.9 20:56:26 19° SE 20:59:39 36° ENE 21:04:33 10° N
Lacrosse 5 rocket 3.7 20:57:35 10° N 20:59:40 13° NE 21:01:42 10° ENE
Aureole 2 Rocket 4.0 20:58:55 10° NNE 21:00:39 15° ENE 21:00:42 15° ENE
Cosmos 1939 Rocket 4.1 20:58:06 10° S 21:01:59 42° W 21:05:56 10° NNW
NOAA 11 4.2 20:58:21 12° SSE 21:03:30 89° E 21:08:59 10° NNW
Cosmos 2322 Rocket 2.2 21:02:56 10° NNW 21:08:33 69° ENE 21:12:02 23° SSE
Cosmos 1242 Rocket 2.6 21:09:26 10° NNW 21:13:03 76° W 21:15:05 24° S
CZ-4B DEB 4.4 21:12:47 33° SSE 21:14:11 71° ENE 21:17:38 10° N
SL-16 R/B 2.2 21:13:01 10° NNW 21:18:44 90° ENE 21:22:11 25° SSE
Cosmos 1340 Rocket 2.7 21:18:27 24° S 21:20:47 73° E 21:24:51 10° NNE
Cosmos 2150 Rocket 4.2 21:18:22 10° N 21:23:40 59° ENE 21:25:54 33° SE
MetOp-B 4.3 21:23:56 31° SE 21:26:18 54° ENE 21:31:31 10° N
Cosmos 540 Rocket 3.4 21:22:41 18° S 21:26:25 61° ESE 21:31:32 10° NNE
GPS 2-05 Rocket1 2.5 21:23:22 10° WSW 21:26:40 70° SSE 21:26:55 66° SE
OAO 1 Rocket 4.5 21:21:33 10° W 21:26:53 80° N 21:30:01 25° E
Cosmos 1513 Rocket 4.5 21:23:27 22° SSE 21:27:22 60° E 21:33:25 10° NNE
Spot 2 Rocket 4.2 21:25:07 14° S 21:29:20 49° W 21:34:13 10° NNW
Cosmos 2034 Rocket 4.1 21:29:18 29° SSE 21:32:15 52° E 21:38:11 10° NNE
Cosmos 2219 4.3 21:34:42 25° E 21:34:42 25° E 21:38:43 10° NE
Cosmos 1464 Rocket 4.0 21:30:00 17° S 21:34:59 80° E 21:41:23 10° N
SPOT 5 3.8 21:37:55 27° ENE 21:38:16 28° ENE 21:42:07 10° NNE
USA 245 3.9 21:38:32 38° ENE 21:38:32 38° ENE 21:42:21 10° N
Terra 3.8 21:38:20 15° ENE 21:38:37 15° ENE 21:41:13 10° NNE
Cosmos 1937 Rocket 3.7 21:34:00 10° NNW 21:39:05 65° WSW 21:41:34 30° S
Cosmos 1455 Rocket 3.0 21:38:43 10° N 21:43:05 85° W 21:44:21 47° S
Cosmos 841 Rocket 4.4 21:38:56 10° SW 21:43:58 48° WNW 21:49:05 10° N
Cosmos 2298 Rocket 4.1 21:39:36 10° NNW 21:44:54 76° WSW 21:46:59 37° S
Meteor 1-15 Rocket 4.3 21:45:40 10° N 21:51:16 58° E 21:52:34 47° SE
Helios 1A 3.6 21:51:28 40° ENE 21:51:28 40° ENE 21:55:13 10° N
DELTA 2 R/B (1) 3.5 21:46:10 10° SW 21:51:36 58° SSE 21:53:20 40° E
Okean 2 3.7 21:52:12 49° ENE 21:52:12 49° ENE 21:55:49 10° NNE
Cosmos 1891 Rocket 4.5 21:48:51 23° S 21:53:00 83° W 21:59:22 10° N
USA 32 4.4 21:51:53 10° N 21:57:03 61° W 21:59:24 32° SSW
Cosmos 2360 Rocket 2.1 21:51:57 10° NNW 21:57:37 76° ENE 21:58:58 53° SE
Cosmos 372 Rocket 4.4 21:53:09 10° N 21:58:03 44° ENE 21:58:30 43° E
BREEZE M DEB (TANK) 2.5 21:50:59 10° NW 21:58:19 66° NNE 21:58:38 62° ENE
Tiangong 2 3.7 21:57:09 10° NW 21:59:13 16° N 22:00:16 14° NNE
Atlas Centaur 2 3.4 21:57:42 10° WSW 21:58:46 14° SW 21:58:46 14° SW
Cosmos 2219 Rocket 3.7 21:56:34 10° N 22:00:47 21° ENE 22:01:38 21° ENE
Shenzhou-11 Module 3.8 21:59:13 10° NW 22:01:06 30° NNW 22:01:06 30° NNW
Cosmos 1356 Rocket 3.8 22:05:19 54° NE 22:05:19 54° NE 22:08:53 10° NNE
ERS-1 Rocket 3.0 22:07:42 57° S 22:08:40 76° WSW 22:13:42 10° NNW
CZ-2C R/B 4.3 22:16:09 30° ENE 22:16:12 30° ENE 22:20:57 10° N
Helios 1B rocket 2.9 22:15:59 10° NNE 22:19:16 55° NNE 22:19:16 55° NNE
SJ 16-02 1.5 22:16:26 10° NNW 22:20:26 72° NNW 22:20:26 72° NNW
SPOT 1/Viking Rocket 3.4 22:26:20 83° S 22:26:31 87° WSW 22:31:42 10° NNW
IGS 5A 4.5 22:28:32 39° NNE 22:28:32 39° NNE 22:31:25 10° N
Cosmos 2333 Rocket 3.2 22:22:24 10° N 22:27:28 32° ENE 22:27:41 32° ENE
H-2A R/B 3.1 22:29:02 31° SW 22:30:07 34° W 22:34:41 10° NNW
COSMOS 2428 2.9 22:24:59 10° NNW 22:30:34 56° ENE 22:30:38 56° ENE
CZ-4C R/B 3.3 22:26:33 10° NNW 22:33:48 54° NE 22:35:47 44° E
Cosmos 783 Rocket 4.4 22:33:59 85° NW 22:33:59 85° NW 22:39:15 10° NNE
Cosmos 1125 Rocket 3.5 22:33:02 10° NNW 22:38:03 78° WNW 22:38:03 78° WNW
Lacrosse 5 rocket 2.5 22:35:14 10° NW 22:38:05 41° NW 22:38:05 41° NW
Cosmos 2297 Rocket 3.7 22:44:25 24° ENE 22:44:25 24° ENE 22:47:02 10° NE
Cosmos 1092 Rocket 3.8 22:39:09 10° N 22:45:31 87° E 22:45:54 80° SSE
Cosmos 2227 Rocket 3.4 22:47:43 30° ENE 22:47:43 30° ENE 22:50:53 10° NE
Nadezhda 4 Rocket 4.3 22:40:47 10° NNW 22:46:59 60° W 22:48:06 52° SW
Cosmos 2322 4.3 22:47:23 10° NNW 22:52:52 48° WSW 22:52:56 48° WSW
Cosmos 2237 Rocket 3.4 22:51:49 10° N 22:56:28 30° NE 22:56:28 30° NE
Centaur D-1AR AC-36 4.2 22:49:46 10° WSW 22:59:00 26° SW 22:59:00 26° SW
NOSS 0 Rocket 4.4 22:56:52 10° NNW 23:02:42 51° ENE 23:02:42 51° ENE
Cosmos 2279 Rocket 4.0 23:14:02 72° NNE 23:14:02 72° NNE 23:19:36 10° N
Cosmos 2026 Rocket 4.0 23:07:39 10° N 23:13:15 75° N 23:13:15 75° N
Terra 3.1 23:17:13 38° NW 23:17:13 38° NW 23:20:30 10° NNW
Cosmos 2219 4.4 23:16:32 32° W 23:17:59 37° WNW 23:23:19 10° N
Cosmos 1655 Rocket 4.2 23:16:40 10° N 23:22:14 63° NE 23:22:14 63° NE
Iridium 4 Rocket 4.4 23:29:50 49° NNE 23:29:50 49° NNE 23:34:12 10° N
CZ-2C R/B 3.4 23:32:46 10° N 23:37:37 49° NW 23:37:37 49° NW
Mayak 1.4 23:36:15 10° NNE 23:37:00 14° NNE 23:37:00 14° NNE
Cosmos 2219 Rocket 3.4 23:39:37 10° NW 23:43:21 36° WNW 23:43:21 36° WNW
COSMOS 2455 3.6 23:54:03 48° NW 23:54:03 48° NW 23:59:31 10° NNE
